This demonstration page uses our WeatherBlox Daily Observations layout. Learn more.

Left ArrowRight Arrow

Hourly Observations for August 10, 2020

Temp ( °F °C ) Dew Point ( °F °C ) Humidity (%) Winds ( mph kmh ) Pressure ( in mb ) Visibility ( mi km ) Precip ( " mm )
12:53 am 00:53 Clear 79 26.1 70 21.1 74 74 S 9 15 29.82 1010 10 16 0.00 0.00
1:53 am 01:53 Clear 79 26.1 68 20 69 69 SSW 8 13 29.82 1010 10 16 0.00 0.00
2:53 am 02:53 Clear 75 23.9 68 20 79 79 SW 6 9 29.82 1010 10 16 0.00 0.00
3:53 am 03:53 Clear 71 21.7 66 18.9 84 84 WSW 3 6 29.81 1010 10 16 0.00 0.00
4:53 am 04:53 Clear 71 21.7 63 17.2 76 76 W 5 7 29.83 1010 10 16 0.00 0.00
5:53 am 05:53 Clear 69 20.6 62 16.7 78 78 Calm 29.85 1011 10 16 0.00 0.00
6:53 am 06:53 Sunny 67 19.4 64 17.8 91 91 Calm 29.86 1011 10 16 0.00 0.00
7:20 am 07:20 Partly Cloudy 67 19.4 64 17.8 91 91 WNW 5 7 29.90 1013 10 16 0.00 0.00
7:29 am 07:29 Mostly Cloudy with Mist and Fog 68 20 66 18.9 93 93 NW 6 9 29.91 1013 4 6 0.00 0.00
7:35 am 07:35 Mostly Cloudy with Mist and Fog 68 20 66 18.9 93 93 W 3 6 29.92 1013 2 3 0.00 0.00
7:46 am 07:46 Mostly Cloudy with Fog 69 20.6 67 19.4 93 93 NW 5 7 29.91 1013 0 0 0.00 0.00
7:53 am 07:53 Mostly Cloudy with Fog 69 20.6 68 20 96 96 NNW 6 9 29.93 1014 0 0 0.00 0.00
8:24 am 08:24 Cloudy with Mist and Fog 73 22.8 71 21.7 94 94 N 15 24 29.94 1014 2 3 0.00 0.00
8:32 am 08:32 Cloudy with Mist and Fog 71 21.7 70 21.1 96 96 N 24 39 29.95 1014 2 3 0.00 0.00
8:50 am 08:50 Cloudy with Mist and Fog 70 21 68 20 94 94 NNE 18 30 29.97 1015 5 8 0.00 0.00
8:53 am 08:53 Cloudy with Mist and Fog 69 20.6 67 19.4 93 93 NNE 20 31 29.99 1016 6 10 0.00 0.00
9:02 am 09:02 Cloudy 69 20.6 67 19.4 93 93 NNE 20 31 29.97 1015 7 11 0.00 0.00
9:53 am 09:53 Cloudy 69 20.6 64 17.8 84 84 NE 14 22 29.99 1016 10 16 0.00 0.00
10:05 am 10:05 Mostly Cloudy 72 22.2 64 17.8 76 76 NE 17 28 29.96 1015 10 16 0.00 0.00
10:12 am 10:12 Partly Cloudy 72 22.2 64 17.8 76 76 NE 18 30 29.96 1015 10 16 0.00 0.00
10:53 am 10:53 Sunny 75 23.9 62 16.7 64 64 NE 17 28 30.00 1016 10 16 0.00 0.00
11:53 am 11:53 Sunny 76 24.4 61 16.1 60 60 ENE 18 30 29.98 1015 10 16 0.00 0.00
12:53 pm 12:53 Sunny 78 25.6 62 16.7 58 58 E 14 22 29.98 1015 10 16 0.00 0.00
1:53 pm 13:53 Sunny 80 26.7 62 16.7 54 54 ESE 10 17 29.98 1015 10 16 0.00 0.00
2:53 pm 14:53 Sunny 82 27.8 63 17.2 53 53 ENE 10 17 29.97 1015 10 16 0.00 0.00
3:53 pm 15:53 Sunny 84 28.9 64 17.8 51 51 ENE 9 15 29.96 1015 10 16 0.00 0.00
4:53 pm 16:53 Sunny 83 28.3 65 18.3 55 55 E 7 11 29.94 1014 10 16 0.00 0.00
5:53 pm 17:53 Sunny 82 27.8 66 18.9 58 58 ENE 12 19 29.93 1014 10 16 0.00 0.00
6:53 pm 18:53 Sunny 80 26.7 65 18.3 60 60 ENE 10 17 29.94 1014 10 16 0.00 0.00
7:53 pm 19:53 Sunny 76 24.4 64 17.8 67 67 E 8 13 29.94 1014 10 16 0.00 0.00
8:53 pm 20:53 Clear 73 22.8 64 17.8 74 74 ENE 8 13 29.93 1014 10 16 0.00 0.00
9:53 pm 21:53 Cloudy 73 22.8 64 17.8 74 74 ENE 8 13 29.97 1015 10 16 0.00 0.00
10:19 pm 22:19 Mostly Cloudy 71 21.7 64 17.8 79 79 NE 6 9 29.93 1014 10 16 0.00 0.00
10:40 pm 22:40 Mostly Clear 70 21.1 64 17.8 82 82 ENE 8 13 29.94 1014 10 16 0.00 0.00
10:53 pm 22:53 Mostly Cloudy 71 21.7 64 17.8 79 79 ENE 6 9 29.96 1015 10 16 0.00 0.00
11:24 pm 23:24 Mostly Clear 69 20.6 63 17.2 81 81 ENE 8 13 29.94 1014 10 16 0.00 0.00
11:49 pm 23:49 Mostly Cloudy 70 21 63 17 78 78 NE 8 13 29.94 1014 10 16 0.00 0.00
11:53 pm 23:53 Mostly Cloudy 69 20.6 63 17.2 81 81 ENE 8 13 29.97 1015 10 16 0.00 0.00

Powered by AerisWeather